Back to catalog

TITAN 34D TRANSTAGE R/B

AliveGEO
NORAD 20205·ROCKET BODY·🇺🇸 United States

Launched Sep 4, 1989 from Cape Canaveral Space Force Station

Loading…

TLE

FreshSource: Space-Track

Epoch: Sep 14, 2026, 06:55 UTC

1 20205U 89069D   26257.28884269 -.00000092  00000-0  00000-0 0  9992
2 20205  10.9376 327.0001 0070043 348.8592  10.9796  1.01246601 27904

Track TITAN 34D TRANSTAGE R/B in real time with AllMySat

Download on the App Store